Time,TemperatureF,DewpointF,PressureIn,WindDirection,WindDirectionDegrees,WindSpeedMPH,WindSpeedGustMPH,Humidity,HourlyPrecipIn,Conditions,Clouds,dailyrainin,SoftwareType,DateUTC
2013-05-11 00:01:00,60.8,60.0,29.84,WNW,285,0.0,4.0,96,0.01,,,0.00,weatherlink.com 1.10,2013-05-11 04:01:00,
2013-05-11 00:16:00,60.8,60.0,29.84,NNW,340,0.0,8.0,96,0.02,,,0.02,weatherlink.com 1.10,2013-05-11 04:16:00,
2013-05-11 00:31:00,60.6,60.0,29.84,NNE,21,0.0,3.0,96,0.04,,,0.04,weatherlink.com 1.10,2013-05-11 04:31:00,
2013-05-11 00:47:00,60.6,60.0,29.84,South,179,3.0,4.0,97,0.04,,,0.04,weatherlink.com 1.10,2013-05-11 04:47:00,
2013-05-11 01:01:00,60.7,60.0,29.83,NW,315,1.0,7.0,96,0.04,,,0.04,weatherlink.com 1.10,2013-05-11 05:01:00,
2013-05-11 01:16:00,60.7,60.0,29.83,WSW,250,0.0,8.0,96,0.01,,,0.04,weatherlink.com 1.10,2013-05-11 05:16:00,
2013-05-11 01:31:00,60.7,60.0,29.83,WNW,294,1.0,8.0,96,0.01,,,0.05,weatherlink.com 1.10,2013-05-11 05:31:00,
2013-05-11 01:46:00,60.7,60.0,29.83,WNW,302,0.0,5.0,96,0.04,,,0.08,weatherlink.com 1.10,2013-05-11 05:46:00,
2013-05-11 02:01:00,60.7,60.0,29.82,West,281,1.0,9.0,96,0.04,,,0.08,weatherlink.com 1.10,2013-05-11 06:01:00,
2013-05-11 02:16:00,60.7,60.0,29.82,WSW,245,1.0,6.0,96,0.05,,,0.09,weatherlink.com 1.10,2013-05-11 06:16:00,
2013-05-11 02:31:00,60.5,59.0,29.81,NNW,337,0.0,4.0,96,0.05,,,0.10,weatherlink.com 1.10,2013-05-11 06:31:00,
2013-05-11 02:46:00,60.4,59.0,29.81,WSW,256,1.0,9.0,96,0.08,,,0.16,weatherlink.com 1.10,2013-05-11 06:46:00,
2013-05-11 03:01:00,60.3,60.0,29.81,ENE,60,0.0,8.0,97,0.10,,,0.18,weatherlink.com 1.10,2013-05-11 07:01:00,
2013-05-11 03:16:00,60.3,60.0,29.81,NNW,327,1.0,5.0,97,0.09,,,0.18,weatherlink.com 1.10,2013-05-11 07:16:00,
2013-05-11 03:31:00,60.2,59.0,29.81,NNW,342,1.0,4.0,97,0.08,,,0.18,weatherlink.com 1.10,2013-05-11 07:31:00,
2013-05-11 03:47:00,60.2,59.0,29.81,North,11,1.0,3.0,97,0.02,,,0.18,weatherlink.com 1.10,2013-05-11 07:47:00,
2013-05-11 04:02:00,60.1,59.0,29.81,SW,224,2.0,7.0,97,0.00,,,0.18,weatherlink.com 1.10,2013-05-11 08:02:00,
2013-05-11 04:17:00,60.1,59.0,29.81,ESE,108,4.0,4.0,97,0.00,,,0.18,weatherlink.com 1.10,2013-05-11 08:17:00,
2013-05-11 04:32:00,60.1,59.0,29.81,ESE,109,2.0,4.0,97,0.00,,,0.18,weatherlink.com 1.10,2013-05-11 08:32:00,
2013-05-11 04:47:00,60.1,59.0,29.80,NNW,335,0.0,4.0,97,0.00,,,0.18,weatherlink.com 1.10,2013-05-11 08:47:00,
2013-05-11 05:02:00,60.1,59.0,29.80,WNW,302,2.0,4.0,97,0.00,,,0.18,weatherlink.com 1.10,2013-05-11 09:02:00,
2013-05-11 05:17:00,60.1,59.0,29.80,NW,311,0.0,3.0,97,0.00,,,0.18,weatherlink.com 1.10,2013-05-11 09:17:00,
2013-05-11 05:32:00,60.0,59.0,29.80,WSW,242,2.0,2.0,97,0.00,,,0.18,weatherlink.com 1.10,2013-05-11 09:32:00,
2013-05-11 05:47:00,60.1,59.0,29.80,WNW,290,1.0,2.0,97,0.00,,,0.18,weatherlink.com 1.10,2013-05-11 09:47:00,
2013-05-11 06:02:00,60.1,59.0,29.80,SSW,195,0.0,2.0,97,0.00,,,0.18,weatherlink.com 1.10,2013-05-11 10:02:00,
2013-05-11 06:17:00,60.0,59.0,29.80,West,264,0.0,1.0,97,0.00,,,0.18,weatherlink.com 1.10,2013-05-11 10:17:00,
2013-05-11 06:32:00,60.0,59.0,29.80,SW,229,0.0,1.0,97,0.00,,,0.18,weatherlink.com 1.10,2013-05-11 10:32:00,
2013-05-11 06:47:00,60.0,59.0,29.80,South,191,0.0,2.0,97,0.00,,,0.18,weatherlink.com 1.10,2013-05-11 10:47:00,
2013-05-11 07:02:00,60.0,59.0,29.80,West,266,0.0,1.0,97,0.00,,,0.18,weatherlink.com 1.10,2013-05-11 11:02:00,
2013-05-11 07:17:00,60.0,59.0,29.80,East,94,0.0,2.0,97,0.01,,,0.19,weatherlink.com 1.10,2013-05-11 11:17:00,
2013-05-11 07:32:00,60.0,59.0,29.79,NNW,333,1.0,1.0,97,0.01,,,0.19,weatherlink.com 1.10,2013-05-11 11:32:00,
2013-05-11 07:47:00,60.0,59.0,29.80,SE,142,4.0,5.0,97,0.04,,,0.22,weatherlink.com 1.10,2013-05-11 11:47:00,
2013-05-11 08:02:00,60.0,59.0,29.80,SE,125,0.0,2.0,97,0.06,,,0.24,weatherlink.com 1.10,2013-05-11 12:02:00,
2013-05-11 08:17:00,60.0,60.0,29.79,SW,215,1.0,4.0,98,0.05,,,0.24,weatherlink.com 1.10,2013-05-11 12:17:00,
2013-05-11 08:32:00,60.0,60.0,29.79,WNW,290,0.0,1.0,98,0.06,,,0.26,weatherlink.com 1.10,2013-05-11 12:32:00,
2013-05-11 08:47:00,59.9,59.0,29.79,SE,135,1.0,1.0,98,0.09,,,0.32,weatherlink.com 1.10,2013-05-11 12:47:00,
2013-05-11 09:02:00,59.9,59.0,29.79,NW,316,1.0,3.0,98,0.17,,,0.41,weatherlink.com 1.10,2013-05-11 13:02:00,
2013-05-11 09:17:00,59.9,59.0,29.78,NW,307,0.0,2.0,98,0.26,,,0.50,weatherlink.com 1.10,2013-05-11 13:17:00,
2013-05-11 09:32:00,60.1,60.0,29.79,SSW,194,0.0,3.0,98,0.25,,,0.51,weatherlink.com 1.10,2013-05-11 13:32:00,
2013-05-11 09:47:00,60.1,60.0,29.79,WSW,239,0.0,3.0,98,0.23,,,0.55,weatherlink.com 1.10,2013-05-11 13:47:00,
2013-05-11 10:02:00,60.0,60.0,29.79,SW,232,0.0,3.0,98,0.20,,,0.63,weatherlink.com 1.10,2013-05-11 14:02:00,
2013-05-11 10:17:00,59.8,59.0,29.78,West,280,0.0,2.0,98,0.17,,,0.67,weatherlink.com 1.10,2013-05-11 14:17:00,
2013-05-11 10:32:00,60.7,60.0,29.78,SW,233,2.0,2.0,98,0.17,,,0.68,weatherlink.com 1.10,2013-05-11 14:32:00,
2013-05-11 10:47:00,61.4,61.0,29.78,West,269,1.0,3.0,98,0.13,,,0.68,weatherlink.com 1.10,2013-05-11 14:47:00,
2013-05-11 11:02:00,61.6,61.0,29.79,West,281,1.0,2.0,97,0.05,,,0.68,weatherlink.com 1.10,2013-05-11 15:02:00,
2013-05-11 11:17:00,61.2,60.0,29.79,SSE,151,0.0,5.0,96,0.01,,,0.68,weatherlink.com 1.10,2013-05-11 15:17:00,
2013-05-11 11:32:00,60.5,59.0,29.80,WSW,242,1.0,4.0,96,0.01,,,0.69,weatherlink.com 1.10,2013-05-11 15:32:00,
2013-05-11 11:47:00,60.1,59.0,29.80,West,280,2.0,2.0,97,0.06,,,0.74,weatherlink.com 1.10,2013-05-11 15:47:00,
2013-05-11 12:02:00,61.2,60.0,29.80,NW,318,1.0,2.0,97,0.06,,,0.74,weatherlink.com 1.10,2013-05-11 16:02:00,
2013-05-11 12:17:00,60.7,60.0,29.80,NNW,340,1.0,3.0,96,0.06,,,0.74,weatherlink.com 1.10,2013-05-11 16:17:00,
2013-05-11 12:32:00,61.2,60.0,29.80,NNW,344,0.0,3.0,95,0.04,,,0.74,weatherlink.com 1.10,2013-05-11 16:32:00,
2013-05-11 12:47:00,61.5,60.0,29.80,SSE,165,1.0,3.0,95,0.00,,,0.74,weatherlink.com 1.10,2013-05-11 16:47:00,
2013-05-11 13:02:00,61.7,60.0,29.81,West,278,1.0,4.0,93,0.00,,,0.74,weatherlink.com 1.10,2013-05-11 17:02:00,
2013-05-11 13:17:00,62.4,60.0,29.81,NW,325,1.0,5.0,92,0.00,,,0.74,weatherlink.com 1.10,2013-05-11 17:17:00,
2013-05-11 13:32:00,62.9,60.0,29.80,SSW,207,2.0,5.0,90,0.00,,,0.74,weatherlink.com 1.10,2013-05-11 17:32:00,
2013-05-11 13:47:00,62.4,59.0,29.80,WNW,283,1.0,6.0,87,0.00,,,0.74,weatherlink.com 1.10,2013-05-11 17:47:00,
2013-05-11 14:02:00,62.8,58.0,29.81,WNW,290,1.0,5.0,85,0.00,,,0.74,weatherlink.com 1.10,2013-05-11 18:02:00,
2013-05-11 14:17:00,63.5,58.0,29.81,NNW,338,3.0,6.0,83,0.00,,,0.74,weatherlink.com 1.10,2013-05-11 18:17:00,
2013-05-11 14:32:00,63.4,58.0,29.81,NNE,15,1.0,3.0,82,0.00,,,0.74,weatherlink.com 1.10,2013-05-11 18:32:00,
2013-05-11 14:47:00,63.2,57.0,29.81,SW,225,2.0,13.0,80,0.00,,,0.74,weatherlink.com 1.10,2013-05-11 18:47:00,
2013-05-11 15:02:00,62.5,56.0,29.81,NW,319,0.0,4.0,80,0.00,,,0.74,weatherlink.com 1.10,2013-05-11 19:02:00,
2013-05-11 15:17:00,62.2,56.0,29.81,West,270,0.0,5.0,81,0.00,,,0.74,weatherlink.com 1.10,2013-05-11 19:17:00,
2013-05-11 15:32:00,62.9,57.0,29.80,NNW,330,3.0,5.0,81,0.00,,,0.74,weatherlink.com 1.10,2013-05-11 19:32:00,
2013-05-11 15:47:00,63.2,57.0,29.80,NW,315,0.0,4.0,79,0.00,,,0.74,weatherlink.com 1.10,2013-05-11 19:47:00,
2013-05-11 16:02:00,63.9,57.0,29.80,WSW,250,2.0,7.0,79,0.00,,,0.74,weatherlink.com 1.10,2013-05-11 20:02:00,
2013-05-11 16:17:00,63.6,57.0,29.79,SW,236,2.0,3.0,79,0.00,,,0.74,weatherlink.com 1.10,2013-05-11 20:17:00,
2013-05-11 16:32:00,62.9,56.0,29.80,WSW,237,1.0,4.0,78,0.00,,,0.74,weatherlink.com 1.10,2013-05-11 20:32:00,
2013-05-11 16:47:00,62.1,56.0,29.80,SW,224,0.0,3.0,81,0.00,,,0.74,weatherlink.com 1.10,2013-05-11 20:47:00,
2013-05-11 17:02:00,61.4,55.0,29.80,WNW,301,0.0,5.0,79,0.00,,,0.74,weatherlink.com 1.10,2013-05-11 21:02:00,
2013-05-11 17:17:00,61.1,55.0,29.80,WNW,295,0.0,4.0,80,0.00,,,0.74,weatherlink.com 1.10,2013-05-11 21:17:00,
2013-05-11 17:32:00,60.7,55.0,29.80,West,276,0.0,4.0,81,0.00,,,0.74,weatherlink.com 1.10,2013-05-11 21:32:00,
2013-05-11 17:47:00,60.6,55.0,29.81,North,349,0.0,3.0,81,0.00,,,0.74,weatherlink.com 1.10,2013-05-11 21:47:00,
2013-05-11 18:03:00,60.2,55.0,29.82,NNW,342,0.0,2.0,82,0.00,,,0.74,weatherlink.com 1.10,2013-05-11 22:03:00,
2013-05-11 18:18:00,59.9,54.0,29.81,West,265,0.0,3.0,82,0.00,,,0.74,weatherlink.com 1.10,2013-05-11 22:18:00,
2013-05-11 18:33:00,59.6,54.0,29.82,WNW,288,0.0,2.0,82,0.00,,,0.74,weatherlink.com 1.10,2013-05-11 22:33:00,
2013-05-11 18:48:00,59.3,54.0,29.82,NW,322,1.0,5.0,82,0.00,,,0.74,weatherlink.com 1.10,2013-05-11 22:48:00,
2013-05-11 19:03:00,59.0,54.0,29.82,WSW,240,3.0,4.0,83,0.00,,,0.74,weatherlink.com 1.10,2013-05-11 23:03:00,
2013-05-11 19:18:00,58.7,54.0,29.82,West,277,0.0,5.0,83,0.00,,,0.74,weatherlink.com 1.10,2013-05-11 23:18:00,
2013-05-11 19:33:00,58.4,54.0,29.83,NNW,333,0.0,1.0,84,0.00,,,0.74,weatherlink.com 1.10,2013-05-11 23:33:00,
2013-05-11 19:48:00,58.1,54.0,29.82,North,4,0.0,2.0,85,0.00,,,0.74,weatherlink.com 1.10,2013-05-11 23:48:00,
2013-05-11 20:03:00,57.8,53.0,29.82,WSW,253,1.0,2.0,84,0.00,,,0.74,weatherlink.com 1.10,2013-05-12 00:03:00,
2013-05-11 20:18:00,57.4,52.0,29.82,West,269,0.0,1.0,83,0.00,,,0.74,weatherlink.com 1.10,2013-05-12 00:18:00,
2013-05-11 20:33:00,57.1,52.0,29.82,West,269,0.0,1.0,84,0.00,,,0.74,weatherlink.com 1.10,2013-05-12 00:33:00,
2013-05-11 20:48:00,57.0,53.0,29.83,WSW,249,1.0,5.0,85,0.00,,,0.74,weatherlink.com 1.10,2013-05-12 00:48:00,
2013-05-11 21:03:00,56.8,52.0,29.83,WSW,256,0.0,2.0,85,0.00,,,0.74,weatherlink.com 1.10,2013-05-12 01:03:00,
2013-05-11 21:18:00,56.6,52.0,29.84,West,276,1.0,2.0,84,0.00,,,0.74,weatherlink.com 1.10,2013-05-12 01:18:00,
2013-05-11 21:33:00,56.5,52.0,29.84,WNW,283,0.0,2.0,85,0.00,,,0.74,weatherlink.com 1.10,2013-05-12 01:33:00,
2013-05-11 21:48:00,56.2,52.0,29.84,West,274,0.0,1.0,85,0.00,,,0.74,weatherlink.com 1.10,2013-05-12 01:48:00,
2013-05-11 22:03:00,56.1,52.0,29.84,West,278,1.0,2.0,85,0.00,,,0.74,weatherlink.com 1.10,2013-05-12 02:03:00,
2013-05-11 22:18:00,56.0,52.0,29.85,WNW,290,1.0,1.0,85,0.00,,,0.74,weatherlink.com 1.10,2013-05-12 02:18:00,
2013-05-11 22:33:00,55.8,52.0,29.85,West,279,2.0,2.0,86,0.00,,,0.74,weatherlink.com 1.10,2013-05-12 02:33:00,
2013-05-11 22:48:00,55.7,52.0,29.86,ESE,116,1.0,3.0,87,0.00,,,0.74,weatherlink.com 1.10,2013-05-12 02:48:00,
2013-05-11 23:03:00,55.5,52.0,29.86,WNW,287,0.0,3.0,87,0.00,,,0.74,weatherlink.com 1.10,2013-05-12 03:03:00,
2013-05-11 23:18:00,55.3,51.0,29.86,SSW,195,1.0,2.0,86,0.00,,,0.74,weatherlink.com 1.10,2013-05-12 03:18:00,
2013-05-11 23:33:00,54.8,50.0,29.86,WSW,243,0.0,3.0,84,0.00,,,0.74,weatherlink.com 1.10,2013-05-12 03:33:00,
2013-05-11 23:48:00,54.0,50.0,29.86,West,267,0.0,3.0,86,0.00,,,0.74,weatherlink.com 1.10,2013-05-12 03:48:00,